Location: Drebach
(50.6670°N, 13.0330°E)
Time: 06:09:02
(UTC+01:00)

ISS - Pass Details

Date: 25 January 2021
Orbit: 417 x 422 km, 51.6° (Epoch: 08 March)

Event Time Altitude Azimuth Distance (km) Brightness Sun altitude
Rises 17:57:26 0° 247° (WSW) 2,366 2.2 -10.9°
Reaches altitude 10° 17:59:32 10° 245° (WSW) 1,504 0.6 -11.2°
Maximum altitude 18:02:54 71° 161° (SSE) 450 -3.7 -11.7°
Enters shadow 18:05:04 20° 80° (E) 1,027 -2.4 -12.1°
